Weather History for Buckhannon, WV

Change the Weather History Date:

Monday, December 31, 2012

  Actual Average (KEKN) Record (KEKN)
Temperature  
Mean Temperature 27 °F 30 °F  
Max Temperature 33 °F 39 °F 70 °F (1972)
Min Temperature 21 °F 20 °F -5 °F (1983)
Degree Days  
Heating Degree Days 38 35  
Month to date heating degree days 1008  
Since 1 July heating degree days 2291  
Cooling Degree Days 0 0  
Month to date cooling degree days 0  
Year to date cooling degree days 475  
Moisture  
Dew Point 20 °F    
Average Humidity 71    
Maximum Humidity 93    
Minimum Humidity 56    
Precipitation  
Precipitation 0.00 in 0.10 in 1.40 in (1923)
Month to date precipitation 3.26  
Year to date precipitation 45.93  
Snow  
Snow 0.00 in - - ()
Month to date snowfall  
Since 1 September snowfall  
Snow Depth -    
Sea Level Pressure  
Sea Level Pressure 30.19 in    
Wind  
Wind Speed 7 mph (SSW)    
Max Wind Speed 16 mph    
Max Gust Speed 23 mph    
Visibility 10 miles    
Events      
T = Trace of Precipitation, MM = Missing Value Source: NWS Daily Summary

Daily Weather History Graph

Daily Weather History Graph

Search for Another Location

Airport:

Trip Planner

Search our weather history database for the weather conditions in past years. The results will help you decide how hot, cold, wet, or windy it might be!

Date:

Astronomy

Dec. 31, 2012 Rise Set
Actual Time 7:39 AM EST 5:08 PM EST
Civil Twilight 7:10 AM EST 5:38 PM EST
Nautical Twilight 6:36 AM EST 6:12 PM EST
Astronomical Twilight 6:04 AM EST 6:44 PM EST
Moon 8:36 PM EST (12/31) 9:22 AM EST (12/31)
Length of Visible Light 10h 28m
Length of Day
9h 29m
Waning Gibbous, 90% of the Moon is Illuminated
Dec 31
Waning Gibbous
Jan 4
Last Quarter
Jan 11
New
Jan 18
First Quarter
Jan 26
Full

Hourly Weather History & Observations

Time (EST) Temp. Windchill Dew Point Humidity Pressure Visibility Wind Dir Wind Speed Gust Speed Precip Events Conditions
12:15 AM 21.2 °F 14.9 °F 19.4 °F 93% 30.32 in 10.0 mi South 4.6 mph - N/A   Clear
12:35 AM 21.2 °F 14.9 °F 19.4 °F 93% 30.32 in 10.0 mi South 4.6 mph - N/A   Clear
12:55 AM 21.2 °F 14.9 °F 19.4 °F 93% 30.32 in 10.0 mi SSW 4.6 mph - N/A   Clear
1:15 AM 21.2 °F 14.9 °F 19.4 °F 93% 30.33 in 10.0 mi SSW 4.6 mph - N/A   Clear
1:35 AM 21.2 °F 14.9 °F 19.4 °F 93% 30.33 in 10.0 mi South 4.6 mph - N/A   Clear
1:55 AM 21.2 °F 13.6 °F 19.4 °F 93% 30.31 in 10.0 mi South 5.8 mph - N/A   Clear
2:15 AM 21.2 °F 13.6 °F 19.4 °F 93% 30.30 in 10.0 mi SSW 5.8 mph - N/A   Clear
2:35 AM 21.2 °F 13.6 °F 19.4 °F 93% 30.29 in 10.0 mi SSW 5.8 mph - N/A   Clear
2:55 AM 23.0 °F 15.8 °F 19.4 °F 86% 30.30 in 10.0 mi SSW 5.8 mph - N/A   Clear
3:15 AM 23.0 °F 15.8 °F 19.4 °F 86% 30.31 in 10.0 mi SSW 5.8 mph - N/A   Clear
3:35 AM 23.0 °F 17.0 °F 19.4 °F 86% 30.30 in 10.0 mi South 4.6 mph - N/A   Clear
3:55 AM 23.0 °F 15.8 °F 19.4 °F 86% 30.30 in 10.0 mi South 5.8 mph - N/A   Clear
4:15 AM 21.2 °F 12.6 °F 19.4 °F 93% 30.27 in 10.0 mi South 6.9 mph - N/A   Clear
4:35 AM 21.2 °F 11.7 °F 19.4 °F 93% 30.26 in 10.0 mi South 8.1 mph - N/A   Clear
4:55 AM 21.2 °F 13.6 °F 19.4 °F 93% 30.26 in 10.0 mi SSW 5.8 mph - N/A   Clear
5:15 AM 23.0 °F 15.8 °F 19.4 °F 86% 30.24 in 10.0 mi South 5.8 mph - N/A   Clear
5:35 AM 23.0 °F 15.8 °F 19.4 °F 86% 30.24 in 10.0 mi South 5.8 mph - N/A   Clear
5:55 AM 23.0 °F 15.8 °F 19.4 °F 86% 30.24 in 10.0 mi South 5.8 mph - N/A   Clear
6:15 AM 23.0 °F 17.0 °F 19.4 °F 86% 30.25 in 10.0 mi SSW 4.6 mph - N/A   Clear
6:35 AM 23.0 °F 18.4 °F 19.4 °F 86% 30.27 in 10.0 mi SSW 3.5 mph - N/A   Clear
6:55 AM 23.0 °F 15.8 °F 19.4 °F 86% 30.26 in 10.0 mi South 5.8 mph - N/A   Clear
7:15 AM 23.0 °F 15.8 °F 19.4 °F 86% 30.26 in 10.0 mi South 5.8 mph - N/A   Clear
7:55 AM 24.8 °F 19.1 °F 19.4 °F 80% 30.26 in 10.0 mi South 4.6 mph - N/A   Clear
8:15 AM 26.6 °F 22.6 °F 19.4 °F 74% 30.26 in 10.0 mi South 3.5 mph - N/A   Clear
8:35 AM 26.6 °F 21.2 °F 19.4 °F 74% 30.24 in 10.0 mi South 4.6 mph - N/A   Clear
8:55 AM 28.4 °F - 19.4 °F 69% 30.25 in 10.0 mi Calm Calm - N/A   Clear
9:15 AM 28.4 °F 23.3 °F 19.4 °F 69% 30.25 in 10.0 mi South 4.6 mph - N/A   Clear
9:35 AM 28.4 °F 22.2 °F 19.4 °F 69% 30.25 in 10.0 mi South 5.8 mph - N/A   Clear
9:55 AM 30.2 °F 25.4 °F 21.2 °F 69% 30.25 in 10.0 mi SSW 4.6 mph - N/A   Clear
10:15 AM 32.0 °F 25.6 °F 21.2 °F 64% 30.25 in 10.0 mi SSW 6.9 mph - N/A   Clear
10:35 AM 32.0 °F 24.8 °F 21.2 °F 64% 30.24 in 10.0 mi SSW 8.1 mph - N/A   Clear
10:55 AM 32.0 °F 24.2 °F 21.2 °F 64% 30.24 in 10.0 mi SSW 9.2 mph - N/A   Clear
11:15 AM 32.0 °F 22.5 °F 21.2 °F 64% 30.23 in 10.0 mi SSW 12.7 mph 18.4 mph N/A   Clear
11:35 AM 32.0 °F 21.6 °F 21.2 °F 64% 30.22 in 10.0 mi SSW 15.0 mph 19.6 mph N/A   Clear
11:55 AM 32.0 °F 21.6 °F 21.2 °F 64% 30.21 in 10.0 mi SSW 15.0 mph 21.9 mph N/A   Clear
12:15 PM 33.8 °F 23.9 °F 21.2 °F 60% 30.19 in 10.0 mi SW 15.0 mph 18.4 mph N/A   Clear
12:35 PM 33.8 °F 23.9 °F 21.2 °F 60% 30.18 in 10.0 mi SSW 15.0 mph 18.4 mph N/A   Clear
12:55 PM 33.8 °F 25.3 °F 21.2 °F 60% 30.17 in 10.0 mi SSW 11.5 mph 16.1 mph N/A   Clear
1:15 PM 33.8 °F 25.8 °F 21.2 °F 60% 30.15 in 10.0 mi SSW 10.4 mph - N/A   Clear
1:35 PM 33.8 °F 25.8 °F 21.2 °F 60% 30.15 in 10.0 mi SSW 10.4 mph - N/A   Clear
1:55 PM 33.8 °F 23.5 °F 21.2 °F 60% 30.16 in 10.0 mi SW 16.1 mph 23.0 mph N/A   Partly Cloudy
2:15 PM 33.8 °F 24.8 °F 21.2 °F 60% 30.15 in 10.0 mi SW 12.7 mph - N/A   Partly Cloudy
2:35 PM 33.8 °F 26.4 °F 21.2 °F 60% 30.14 in 10.0 mi SW 9.2 mph - N/A   Clear
2:55 PM 33.8 °F 27.7 °F 21.2 °F 60% 30.13 in 10.0 mi SW 6.9 mph - N/A   Partly Cloudy
3:15 PM 33.8 °F 27.0 °F 19.4 °F 56% 30.13 in 10.0 mi SW 8.1 mph - N/A   Clear
3:35 PM 33.8 °F 26.4 °F 21.2 °F 60% 30.14 in 10.0 mi SW 9.2 mph - N/A   Clear
3:55 PM 33.8 °F 27.0 °F 21.2 °F 60% 30.13 in 10.0 mi SSW 8.1 mph - N/A   Clear
4:15 PM 33.8 °F 27.7 °F 21.2 °F 60% 30.12 in 10.0 mi SSW 6.9 mph - N/A   Clear
4:35 PM 33.8 °F 27.7 °F 21.2 °F 60% 30.09 in 10.0 mi South 6.9 mph - N/A   Clear
4:55 PM 33.8 °F 27.7 °F 21.2 °F 60% 30.08 in 10.0 mi SSW 6.9 mph - N/A   Clear
5:15 PM 33.8 °F 26.4 °F 21.2 °F 60% 30.09 in 10.0 mi SSW 9.2 mph - N/A   Clear
5:35 PM 33.8 °F 27.7 °F 21.2 °F 60% 30.11 in 10.0 mi WSW 6.9 mph - N/A   Clear
5:55 PM 33.8 °F 26.4 °F 21.2 °F 60% 30.13 in 10.0 mi West 9.2 mph - N/A   Clear
6:15 PM 33.8 °F 27.0 °F 21.2 °F 60% 30.11 in 10.0 mi WSW 8.1 mph - N/A   Clear
6:35 PM 33.8 °F 27.0 °F 21.2 °F 60% 30.11 in 10.0 mi SW 8.1 mph - N/A   Clear
6:55 PM 33.8 °F 28.6 °F 21.2 °F 60% 30.10 in 10.0 mi SW 5.8 mph - N/A   Mostly Cloudy
7:15 PM 33.8 °F 27.0 °F 21.2 °F 60% 30.10 in 10.0 mi SSW 8.1 mph - N/A   Scattered Clouds
7:35 PM 33.8 °F 27.0 °F 21.2 °F 60% 30.09 in 10.0 mi SSW 8.1 mph - N/A   Mostly Cloudy
7:55 PM 33.8 °F 27.0 °F 21.2 °F 60% 30.09 in 10.0 mi SW 8.1 mph - N/A   Mostly Cloudy
8:15 PM 33.8 °F 25.8 °F 21.2 °F 60% 30.09 in 10.0 mi SW 10.4 mph - N/A   Overcast
8:35 PM 33.8 °F 27.7 °F 21.2 °F 60% 30.09 in 10.0 mi SW 6.9 mph - N/A   Overcast
8:55 PM 33.8 °F 27.7 °F 21.2 °F 60% 30.09 in 10.0 mi SW 6.9 mph - N/A   Mostly Cloudy
9:15 PM 33.8 °F 26.4 °F 21.2 °F 60% 30.08 in 10.0 mi SW 9.2 mph - N/A   Overcast
9:35 PM 33.8 °F 27.0 °F 21.2 °F 60% 30.08 in 10.0 mi SW 8.1 mph - N/A   Scattered Clouds
10:15 PM 33.8 °F 26.4 °F 21.2 °F 60% 30.08 in 10.0 mi SW 9.2 mph - N/A   Mostly Cloudy
10:35 PM 33.8 °F 27.0 °F 21.2 °F 60% 30.07 in 10.0 mi SW 8.1 mph - N/A   Overcast
10:55 PM 33.8 °F 27.7 °F 21.2 °F 60% 30.06 in 10.0 mi SW 6.9 mph - N/A   Overcast
11:15 PM 33.8 °F 26.4 °F 21.2 °F 60% 30.06 in 10.0 mi SW 9.2 mph - N/A   Overcast
11:35 PM 33.8 °F 25.8 °F 21.2 °F 60% 30.07 in 10.0 mi SW 10.4 mph 16.1 mph N/A   Overcast
11:55 PM 33.8 °F 25.3 °F 21.2 °F 60% 30.06 in 10.0 mi SW 11.5 mph 18.4 mph N/A   Overcast